User: anonymous   Login
Location: Peebles
(55.6412°N, 3.1714°W)
Time: 03:37:48
(UTC+00:00)
Language:

Cosmos 2184 Rocket - Orbit

View from above orbital plane
View from above orbital plane
View from above satellite
View from above satellite

Ground track
Ground track

The orbit data is extracted from the following two-line orbital elements,

1 21938U 92020B   21333.75150770  .00000032  00000-0  17337-4 0  9990
2 21938  82.9319 232.8440 0028887 336.6615  43.2784 13.75286760486565
Epoch (UTC): 29 November 2021 18:02:10
Eccentricity: 0.0028887
inclination: 82.9319°
perigee height: 959 km
apogee height: 1002 km
right ascension of ascending node: 232.8440°
argument of perigee: 336.6615°
revolutions per day: 13.75286760
mean anomaly at epoch: 43.2784°
orbit number at epoch: 48656

The dashed part of the orbit path shows where the satellite is in the earth's shadow,  

DLR